Location: Vancouver
(49.2500°N, 123.1330°W)
Time: 19:54:25
(UTC-08:00)

Daily predictions for brighter satellites

Satellite Brightness Start Highest point End
(mag) Time Altitude Azimuth Time Altitude Azimuth Time Altitude Azimuth
Cosmos 2322 Rocket 2.4 18:08:08 10° NNW 18:13:47 82° WSW 18:19:24 10° SSE
ATLAS CENTAUR R/B 3.3 18:12:24 10° W 18:16:17 28° NW 18:19:57 10° NNE
Cosmos 1536 Rocket 4.0 18:12:50 10° N 18:17:06 43° ENE 18:21:21 10° SSE
CENTAUR R/B 4.4 18:11:03 10° NW 18:18:21 45° WSW 18:26:06 10° S
Meteor 1-20 Rocket 4.5 18:12:49 10° SSE 18:18:26 51° E 18:24:06 10° NNE
Spot 2 Rocket 4.3 18:17:48 10° ESE 18:22:08 30° ENE 18:26:30 10° N
Meteor 1-14 Rocket 4.4 18:16:11 10° S 18:22:10 84° E 18:28:11 10° NNE
deb Kosmos-1763 4.3 18:23:01 10° S 18:26:42 51° ESE 18:30:24 10° NNE
Cosmos 2322 3.9 18:22:43 10° NNW 18:28:21 53° NE 18:33:55 10° SE
Cosmos 1833 Rocket 4.3 18:23:22 10° WSW 18:28:29 35° NW 18:33:37 10° NNE
USA 229 DEB 4.3 18:23:07 10° NW 18:29:52 44° NNE 18:36:43 10° ESE
USA 229 4.3 18:23:13 10° NW 18:29:57 44° NNE 18:36:48 10° ESE
Meteor 1-13 Rocket 4.4 18:25:31 10° N 18:30:52 47° ENE 18:36:16 10° SE
FENGYUN 3A 4.0 18:25:58 10° SE 18:31:02 43° ENE 18:36:09 10° N
FREGAT/IRIS 2.9 18:29:21 10° SSE 18:32:20 47° ENE 18:35:21 10° N
HJ-1C 4.2 18:29:41 10° SE 18:32:42 31° ENE 18:35:43 10° N
Cosmos 1536 4.4 18:30:23 10° ESE 18:32:46 15° E 18:35:08 10° NE
Okean 1 3.3 18:29:19 10° N 18:33:23 72° ENE 18:37:26 10° SSE
ALOS 2.5 18:34:28 10° SE 18:38:55 46° ENE 18:43:25 10° N
H-2A R/B 3.6 18:36:46 10° SE 18:39:56 27° ENE 18:43:10 10° N
BREEZE-M DEB (TANK) 2.8 18:37:39 10° W 18:40:13 80° SSW 18:45:51 11° ESE
Nadezhda 1 Rocket 4.3 18:34:35 10° NNW 18:40:40 73° W 18:46:42 10° S
Cosmos 1812 3.4 18:37:35 10° NNW 18:41:24 60° W 18:45:12 10° S
NOSS 2-2 (E) 4.1 18:37:32 10° SW 18:41:45 65° NW 18:46:56 10° NE
COSMOS 2428 3.2 18:37:09 10° NNW 18:42:31 40° NE 18:47:49 10° ESE
Resurs 01 Rocket 2.1 18:39:08 10° SE 18:43:14 39° ENE 18:47:22 10° N
Meteor 2-4 Rocket 4.1 18:39:30 10° N 18:44:47 40° ENE 18:49:53 10° SE
ATLAS 2AS CENTAUR R/B 4.3 18:39:26 10° WNW 18:46:19 29° N 18:53:10 10° ENE
NOAA 12 4.3 18:42:24 10° SSE 18:47:44 82° WSW 18:53:07 10° NNW
Cosmos 1461 4.5 18:44:58 10° NW 18:48:39 36° WSW 18:52:23 10° S
Cosmos 2237 Rocket 3.6 18:44:23 10° N 18:48:40 21° NE 18:51:42 14° ENE
COSMO-SKYMED 1 3.1 18:45:25 10° N 18:49:44 65° WNW 18:54:02 10° SSW
GEOS 3 Rocket 4.5 18:45:24 10° ENE 18:49:58 30° ESE 18:54:34 10° S
USA 215 3.8 18:44:55 10° ENE 18:51:15 55° NNW 18:57:34 10° W
Cosmos 1300 Rocket 4.0 18:47:09 10° SSE 18:51:15 39° E 18:55:25 10° NNE
Meteor 1-25 Rocket 4.4 18:48:07 10° SSW 18:53:45 79° WNW 18:59:30 10° N
Tiangong 2 3.9 18:54:12 10° SW 18:55:06 11° SSW 18:56:00 10° S
METEOR-M 4.4 18:49:58 10° S 18:55:17 74° WSW 19:00:40 10° NNW
Cosmos 1633 2.8 18:53:42 10° SSE 18:57:14 47° E 19:00:48 10° NNE
Cosmos 2181 Rocket 4.0 18:51:50 10° N 18:58:04 73° E 19:04:23 10° SSE
Okean 2 Rocket 4.4 18:57:45 10° SSW 19:02:00 43° WNW 19:06:14 10° N
NOSS 2-2 (D) 4.4 18:58:26 10° WSW 19:02:34 52° NW 19:07:39 10° NE
Resurs 1-3 3.7 18:58:59 10° SE 19:03:14 51° ENE 19:07:31 10° N
USA 186 3.1 19:04:55 21° NE 19:04:55 21° NE 19:06:43 10° NNE
Cosmos 2360 Rocket 2.3 18:59:33 10° NNW 19:05:14 82° WSW 19:10:54 10° SSE
Cosmos 1238 Rocket 2.0 19:03:47 10° N 19:06:54 87° E 19:09:50 10° S
Cosmos 2219 Rocket 2.8 19:02:19 10° NNW 19:07:28 36° NE 19:10:34 21° ESE
Cosmos 2219 4.1 19:04:20 10° SSE 19:09:03 27° ESE 19:13:04 13° NE
Helios 1A 3.4 19:07:52 14° SE 19:11:02 40° ENE 19:14:57 10° N
Meteor 1-11 Rocket 3.8 19:05:34 10° S 19:11:14 59° E 19:17:04 10° NNE
Cosmos 1602 3.6 19:09:17 10° S 19:13:08 68° E 19:17:03 10° NNE
Cosmos 1023 Rocket 4.4 19:13:57 10° S 19:18:56 58° ESE 19:24:00 10° NNE
Cosmos 2074 Rocket 4.2 19:13:32 10° SSE 19:19:25 45° E 19:25:21 10° NNE
Cosmos 1709 Rocket 4.0 19:13:26 10° S 19:19:40 87° W 19:25:52 10° N
Cosmos 1818 3.5 19:15:13 10° SW 19:20:41 85° SE 19:26:11 10° NE
Cosmos 2151 Rocket 4.4 19:16:26 10° SSW 19:20:52 56° WNW 19:25:22 10° N
SL-16 R/B 3.7 19:17:23 10° N 19:21:17 18° NE 19:22:39 17° NE
Cosmos 1741 Rocket 4.4 19:16:33 10° S 19:21:22 39° ESE 19:26:11 10° NE
Cosmos 2184 Rocket 4.2 19:15:27 10° SSE 19:21:23 45° E 19:27:17 10° NNE
Helios 1B rocket 4.1 19:19:24 10° NNE 19:25:50 16° SSE 19:26:49 10° SSE
Okean 1 Rocket 3.0 19:19:49 10° S 19:24:15 65° E 19:28:43 10° NNE
Cosmos 1892 Rocket 4.2 19:21:03 10° N 19:24:58 32° ENE 19:25:14 32° E
Cosmos 407 Rocket 4.1 19:22:00 10° SW 19:27:12 59° WNW 19:32:29 10° NNE
Okean 2 3.7 19:26:22 10° N 19:30:23 44° ENE 19:31:12 38° ESE
Cosmos 676 Rocket 4.2 19:25:26 10° SSW 19:30:38 75° WNW 19:35:54 10° NNE
Cosmos 1570 Rocket 4.0 19:26:21 10° NNW 19:31:38 88° WSW 19:36:51 10° SSE
Cosmos 1340 4.2 19:28:13 10° NNW 19:31:46 37° W 19:35:16 10° SSW
Cosmos 1833 4.1 19:29:33 10° SSW 19:35:15 85° ESE 19:40:57 10° NNE
Nadezhda 3 Rocket 4.3 19:31:01 10° N 19:36:49 41° ENE 19:39:04 30° ESE
Cosmos 2333 Rocket 2.5 19:32:07 10° NNW 19:37:41 47° NE 19:39:38 34° ESE
Okean 1-7 Rocket 3.8 19:38:13 10° NNW 19:42:47 75° W 19:47:16 10° S
Cosmos 1025 Rocket 2.9 19:39:26 10° N 19:43:49 87° E 19:47:21 16° S
Cosmos 2285 Rocket 3.9 19:37:35 10° NNW 19:44:05 75° ENE 19:48:32 21° SSE
Cosmos 1980 4.0 19:42:04 10° NNW 19:47:31 45° NE 19:48:41 40° E
Cosmos 1140 Rocket 3.5 19:43:56 10° SSW 19:49:05 82° WNW 19:54:18 10° NNE
Cosmos 2154 Rocket 4.4 19:48:08 31° SE 19:50:14 41° E 19:56:06 10° NNE
Genesis I 4.1 19:47:05 10° NW 19:50:54 47° WSW 19:52:29 29° S
Cosmos 468 Rocket 4.0 19:50:41 10° NNW 19:55:53 62° ENE 19:56:54 51° ESE
ATLAS CENTAUR R/B 4.1 19:55:25 10° NNW 19:56:37 11° NNW 19:57:48 10° N
Cosmos 614 Rocket 3.8 19:53:46 10° SSW 19:58:51 87° WNW 20:03:58 10° NNE
Cosmos 1939 Rocket 3.8 20:02:10 34° NNE 20:02:10 34° NNE 20:04:39 10° N
Meteor 1-5 Rocket 4.2 19:58:25 10° S 20:04:24 80° E 20:10:18 10° NNE
Meteor 2-13 Rocket 4.3 19:58:55 10° S 20:04:52 62° E 20:10:54 10° NNE
CZ-2D R/B 4.4 20:04:00 13° SSW 20:07:05 41° W 20:10:45 10° NNW
Cosmos 405 Rocket 3.0 20:02:58 10° N 20:06:31 64° N 20:06:31 64° N
Gbstr 26 Del rocket 4.2 20:03:44 10° SW 20:05:39 26° SSW 20:05:39 26° SSW
Cosmos 1536 3.6 20:04:54 10° SSW 20:08:48 51° WNW 20:12:43 10° N
Cosmos 1814 Rocket 3.9 20:07:15 10° NNW 20:12:22 64° ENE 20:12:22 64° ENE
Cosmos 1850 Rocket 4.0 20:07:20 10° SSW 20:12:40 81° WNW 20:18:03 10° NNE
Envisat 2.9 20:16:11 62° SSE 20:17:04 90° E 20:22:12 10° NNW
NOSS 0 Rocket 3.8 20:12:11 10° NNW 20:18:23 88° ENE 20:19:50 56° SSE
SJ-11-01 4.2 20:19:09 81° S 20:19:22 87° WSW 20:24:10 10° NNW
Resurs 01 Rocket 3.8 20:16:11 10° SSW 20:19:51 25° W 20:23:32 10° NW
USA 229 DEB 4.1 20:14:11 10° NW 20:21:13 65° SW 20:24:34 33° SSE
USA 229 4.0 20:14:17 10° NW 20:21:20 65° SW 20:24:38 34° SSE
ERS-1 Rocket 3.2 20:25:29 58° NNE 20:25:29 58° NNE 20:29:42 10° N
COSMOS 2428 3.8 20:21:30 10° NW 20:26:50 42° WSW 20:30:23 20° SSW
GEOS 3 Rocket 3.9 20:26:13 36° NNE 20:28:18 65° NW 20:33:31 10° SW
Cosmos 1066 Rocket 4.3 20:26:29 10° N 20:31:31 63° NNE 20:31:31 63° NNE
Cosmos 2237 Rocket 2.1 20:27:52 10° NNW 20:33:33 84° NE 20:33:33 84° NE
USA 215 3.9 20:31:47 37° NE 20:33:40 46° N 20:39:49 10° WNW
H-2A R/B 3.9 20:36:15 20° NNE 20:36:15 20° NNE 20:38:19 10° N
NOSS 3-1 (A) 3.9 20:26:38 10° NW 20:33:59 70° NE 20:35:21 60° E
ATLAS 2AS CENTAUR R/B 3.7 20:32:02 10° NW 20:39:37 40° NNE 20:41:01 37° NE
SPOT 5 4.4 20:47:54 28° N 20:47:54 28° N 20:50:24 10° N
ARGOS 4.4 20:51:24 32° N 20:51:24 32° N 20:54:23 10° N
Cosmos 2219 Rocket 2.9 20:46:14 10° NW 20:51:35 46° WSW 20:52:21 43° SW
Cosmos 2219 3.7 20:47:10 10° SW 20:52:51 59° WNW 20:55:13 34° N
NOSS 3-1 (C) 3.9 20:46:41 10° NW 20:54:07 83° SW 20:55:11 69° SSE
Meteor 2-8 Rocket 4.5 20:51:11 10° NNW 20:56:38 72° NNW 20:56:38 72° NNW
Helios 1B rocket 4.4 20:54:46 10° N 21:02:10 - SW 20:57:15 26° NW
SL-16 R/B 3.1 21:00:46 10° NNW 21:04:33 42° NNW 21:04:33 42° NNW
Cosmos 2333 Rocket 3.5 21:16:39 10° NW 21:21:40 35° WSW 21:21:40 35° WSW
ATLAS 2AS CENTAUR R/B 4.0 22:23:25 10° NW 22:28:27 42° NW 22:28:27 42° NW
